Weather History for Custer, SD

Change the Weather History Date:

Friday, November 23, 2012

  Actual Average Record
Temperature  
Mean Temperature 29 °F 28 °F  
Max Temperature 39 °F 38 °F 60 °F (2005)
Min Temperature 19 °F 18 °F -12 °F (1952)
Degree Days  
Heating Degree Days 36 37  
Month to date heating degree days 645 733  
Since 1 July heating degree days 1665 1912  
Cooling Degree Days 0 0  
Month to date cooling degree days 0 0  
Year to date cooling degree days 390 177  
Moisture  
Dew Point 9 °F    
Average Humidity 43    
Maximum Humidity 62    
Minimum Humidity 24    
Precipitation  
Precipitation 0.00 in 0.02 in 0.14 in (1931)
Month to date precipitation 0.29 0.49  
Year to date precipitation 11.86 18.45  
Sea Level Pressure  
Sea Level Pressure 30.36 in    
Wind  
Wind Speed 7 mph (West)    
Max Wind Speed 15 mph    
Max Gust Speed 24 mph    
Visibility 10 miles    
Events      
T = Trace of Precipitation, MM = Missing Value Source: NWS Daily Summary

Daily Weather History Graph

Daily Weather History Graph

Search for Another Location

Airport:

Trip Planner

Search our weather history database for the weather conditions in past years. The results will help you decide how hot, cold, wet, or windy it might be!

Date:

Astronomy

Nov. 23, 2012 Rise Set
Actual Time 6:59 AM MST 4:22 PM MST
Civil Twilight 6:27 AM MST 4:53 PM MST
Nautical Twilight 5:52 AM MST 5:29 PM MST
Astronomical Twilight 5:18 AM MST 6:03 PM MST
Moon 1:44 PM MST (11/23) 2:13 AM MST (11/23)
Length of Visible Light 10h 25m
Length of Day
9h 22m
Waxing Gibbous, 80% of the Moon is Illuminated
Nov 23
Waxing Gibbous
Nov 28
Full
Dec 6
Last Quarter
Dec 13
New
Dec 19
First Quarter

Hourly Weather History & Observations

Time (MST) Temp. Windchill Dew Point Humidity Pressure Visibility Wind Dir Wind Speed Gust Speed Precip Events Conditions
12:53 AM 26.1 °F 17.6 °F 10.0 °F 51% 30.45 in 10.0 mi NW 8.1 mph - N/A   Clear
1:53 AM 23.0 °F - 10.0 °F 58% 30.48 in 10.0 mi Calm Calm - N/A   Clear
2:53 AM 23.0 °F 18.4 °F 9.0 °F 55% 30.49 in 10.0 mi NNW 3.5 mph - N/A   Clear
3:53 AM 21.9 °F 17.2 °F 10.0 °F 60% 30.48 in 10.0 mi NNW 3.5 mph - N/A   Clear
4:53 AM 19.0 °F 12.3 °F 9.0 °F 65% 30.50 in 10.0 mi West 4.6 mph - N/A   Clear
5:53 AM 21.9 °F 12.5 °F 9.0 °F 58% 30.48 in 10.0 mi West 8.1 mph - N/A   Clear
6:53 AM 24.1 °F 16.0 °F 9.0 °F 53% 30.49 in 10.0 mi NW 6.9 mph - N/A   Clear
7:53 AM 25.0 °F 20.7 °F 10.0 °F 53% 30.49 in 10.0 mi Variable 3.5 mph - N/A   Clear
8:53 AM 30.0 °F 22.4 °F 10.0 °F 43% 30.47 in 10.0 mi West 8.1 mph - N/A   Clear
9:53 AM 35.1 °F 27.9 °F 9.0 °F 34% 30.45 in 10.0 mi West 9.2 mph - N/A   Clear
10:53 AM 37.0 °F 29.3 °F 3.9 °F 25% 30.42 in 10.0 mi WNW 11.5 mph 20.7 mph N/A   Clear
11:53 AM 37.9 °F 32.1 °F 8.1 °F 29% 30.38 in 10.0 mi WSW 8.1 mph - N/A   Clear
12:53 PM 37.0 °F 31.0 °F 8.1 °F 30% 30.34 in 10.0 mi SW 8.1 mph 16.1 mph N/A   Clear
1:53 PM 37.0 °F 30.4 °F 7.0 °F 29% 30.34 in 10.0 mi WSW 9.2 mph - N/A   Clear
2:53 PM 36.0 °F 32.1 °F 5.0 °F 27% 30.32 in 10.0 mi Variable 4.6 mph - N/A   Clear
3:53 PM 35.1 °F 27.9 °F 5.0 °F 28% 30.32 in 10.0 mi WSW 9.2 mph - N/A   Clear
4:53 PM 33.1 °F 25.5 °F 5.0 °F 31% 30.33 in 10.0 mi WSW 9.2 mph - N/A   Clear
5:53 PM 30.9 °F 24.3 °F 8.1 °F 38% 30.31 in 10.0 mi WSW 6.9 mph - N/A   Clear
6:53 PM 33.1 °F 26.1 °F 9.0 °F 37% 30.27 in 10.0 mi West 8.1 mph - N/A   Clear
7:53 PM 35.1 °F 27.9 °F 9.0 °F 34% 30.25 in 10.0 mi WSW 9.2 mph - N/A   Clear
8:53 PM 36.0 °F 29.0 °F 10.0 °F 34% 30.19 in 10.0 mi West 9.2 mph - N/A   Clear
9:53 PM 37.0 °F 30.4 °F 10.0 °F 33% 30.14 in 10.0 mi West 9.2 mph - N/A   Clear
10:53 PM 37.9 °F 32.7 °F 10.9 °F 33% 30.10 in 10.0 mi West 6.9 mph - N/A   Clear
11:53 PM 37.9 °F 32.1 °F 10.9 °F 33% 30.07 in 10.0 mi WSW 8.1 mph - N/A   Clear